Home   Weather   Payson   Past weeks
Flag for USA

Past Weather in Payson, Arizona, USA — Yesterday and Last 2 Weeks

Now
61 °F

Clear.


Feels Like: 61 °F
Forecast: 76 / 55 °F
Wind: 5 mph from North

Location: Payson

Current Time: Oct 17, 2019 at 1:23:29 am

Latest Report: Oct 17, 2019 at 12:55 am


Visibility: 10 mi

Pressure: 30.09 "Hg (25.13 "Hg at 1524m altitude)

Humidity: 29%

Dew Point: 28 °F

Location of PaysonLocation

Past Weather in Payson — Graph

°F

Payson Temperature Yesterday

Maximum temperature yesterday: 79 °F (at 2:55 pm)
Minimum temperature yesterday: 54 °F (at 5:35 am)
Average temperature yesterday: 66 °F

High & Low Weather Summary for the Past Weeks

 TemperatureHumidityPressure
High79 °F (Oct 3, 4:15 pm)72% (Oct 5, 2:55 am)30.30 "Hg (Oct 5, 2:55 am)
Low43 °F (Oct 11, 5:55 am)4% (Oct 11, 12:55 pm)29.91 "Hg (Oct 9, 4:35 pm)
Average62 °F30%30.14 "Hg
* Reported Oct 2 12:15 am — Oct 17 12:15 am, Payson. Weather by CustomWeather, © 2019

Note: Actual official high and low records may vary slightly from our data, if they occured in-between our weather recording intervals... More about our weather records

Advertising

Payson Weather History for the Previous 24 Hours

Scroll right to see more
 ConditionsComfort  
Time TempWeatherWind HumidityBarometerVisibility
12:15 am
Thu, Oct 17
61 °FPassing clouds.No wind29%30.09 "Hg10 mi
11:35 pm
Wed, Oct 16
61 °FPassing clouds.No wind29%30.10 "Hg10 mi
11:15 pm63 °FPassing clouds.6 mph27%30.10 "Hg10 mi
10:55 pm63 °FClear.6 mph27%30.11 "Hg10 mi
10:35 pm63 °FClear.5 mph25%30.11 "Hg10 mi
10:15 pm63 °FClear.5 mph25%30.12 "Hg10 mi
9:55 pm57 °FClear.3 mph31%30.12 "Hg10 mi
9:35 pm57 °FClear.No wind31%30.12 "Hg10 mi
9:15 pm61 °FClear.No wind27%30.12 "Hg10 mi
8:55 pm61 °FClear.No wind27%30.12 "Hg10 mi
8:35 pm61 °FClear.No wind27%30.12 "Hg10 mi
8:15 pm63 °FClear.No wind24%30.11 "Hg10 mi
7:55 pm66 °FClear.No wind21%30.11 "Hg10 mi
7:35 pm64 °FClear.No wind22%30.11 "Hg10 mi
6:55 pm66 °FClear.3 mph21%30.10 "Hg10 mi
6:35 pm66 °FClear.3 mph21%30.10 "Hg10 mi
6:15 pm66 °FClear.No wind21%30.10 "Hg10 mi
5:55 pm68 °FClear.3 mph20%30.10 "Hg10 mi
5:35 pm70 °FSunny.No wind18%30.10 "Hg10 mi
4:55 pm73 °FSunny.8 mph17%30.10 "Hg10 mi
4:35 pm77 °FSunny.5 mph14%30.10 "Hg10 mi
4:15 pm77 °FSunny.8 mph12%30.11 "Hg10 mi
3:55 pm77 °FSunny.5 mph12%30.12 "Hg10 mi
3:35 pm77 °FSunny.8 mph13%30.12 "Hg10 mi
3:15 pm79 °FSunny.5 mph12%30.13 "Hg10 mi
2:55 pm79 °FSunny.3 mph12%30.14 "Hg10 mi
2:35 pm77 °FSunny.7 mph13%30.14 "Hg10 mi
2:15 pm77 °FSunny.3 mph13%30.15 "Hg10 mi
1:55 pm77 °FSunny.9 mph13%30.17 "Hg10 mi
1:35 pm77 °FSunny.No wind14%30.18 "Hg10 mi
12:55 pm77 °FSunny.No wind15%30.21 "Hg10 mi
12:35 pm75 °FSunny.No wind15%30.23 "Hg10 mi
12:15 pm75 °FSunny.7 mph15%30.24 "Hg10 mi
11:35 am75 °FSunny.6 mph16%30.25 "Hg10 mi
11:15 am75 °FSunny.8 mph16%30.26 "Hg10 mi
10:55 am75 °FSunny.8 mph16%30.27 "Hg10 mi
10:35 am73 °FSunny.5 mph19%30.27 "Hg10 mi
10:15 am73 °FSunny.6 mph17%30.28 "Hg10 mi
9:55 am72 °FSunny.3 mph17%30.28 "Hg10 mi
9:35 am70 °FSunny.5 mph18%30.28 "Hg10 mi
9:15 am70 °FSunny.7 mph17%30.28 "Hg10 mi
8:55 am68 °FSunny.6 mph18%30.28 "Hg10 mi
8:35 am66 °FSunny.5 mph18%30.28 "Hg10 mi
8:15 am64 °FSunny.No wind19%30.27 "Hg10 mi
7:35 am59 °FSunny.3 mph23%30.26 "Hg10 mi
7:15 am57 °FSunny.No wind23%30.25 "Hg10 mi
6:35 am54 °FSunny.No wind26%30.26 "Hg10 mi
6:15 am57 °FClear.No wind23%30.25 "Hg10 mi
5:35 am54 °FClear.No wind26%30.25 "Hg10 mi
5:15 am57 °FClear.No wind23%30.24 "Hg10 mi
4:55 am59 °FClear.5 mph20%30.23 "Hg10 mi
4:35 am59 °FClear.5 mph20%30.22 "Hg10 mi
4:15 am57 °FClear.3 mph23%30.22 "Hg10 mi
3:55 am55 °FClear.6 mph26%30.23 "Hg10 mi
3:35 am57 °FClear.No wind25%30.23 "Hg10 mi
3:15 am59 °FClear.3 mph23%30.23 "Hg10 mi
2:55 am59 °FClear.No wind23%30.23 "Hg10 mi
2:35 am57 °FClear.No wind25%30.23 "Hg10 mi
2:15 am55 °FClear.No wind26%30.23 "Hg10 mi
1:55 am57 °FClear.No wind25%30.23 "Hg10 mi
1:35 am59 °FClear.3 mph23%30.23 "Hg10 mi
1:15 am61 °FClear.3 mph20%30.23 "Hg10 mi
Weather by CustomWeather, © 2019

See weather overview